When you browse on this site, cookies collect data to enhance your experience and personalize the content and advertising you see.
Visit our Privacy Policy to learn more. By continuing to use the site, you agree to this use of cookies and data.

Hourly Weather Twin Falls

Today, 11 August, Tuesday

Time Temperature Precipitation Wind Pressure Humidity
00:00 +19°C° 0 mm 2 mps 663 mmHg 38%
01:00 +19°C° 0 mm 2 mps 662 mmHg 39%
02:00 +18°C° 0 mm 2 mps 662 mmHg 40%
03:00 +18°C° 0 mm 2 mps 662 mmHg 42%
04:00 +18°C° 0 mm 2 mps 663 mmHg 43%
05:00 +21°C° 0 mm 2 mps 663 mmHg 36%
06:00 +24°C° 0 mm 2 mps 664 mmHg 29%
07:00 +27°C° 0 mm 2 mps 665 mmHg 21%
08:00 +29°C° 0 mm 3 mps 666 mmHg 18%
09:00 +31°C° 0 mm 3 mps 666 mmHg 15%
10:00 +35°C° 0 mm 3 mps 666 mmHg 12%
11:00 +36°C° 0 mm 4 mps 666 mmHg 11%
12:00 +37°C° 0 mm 5 mps 666 mmHg 10%
13:00 +39°C° 0 mm 6 mps 665 mmHg 8%
14:00 +39°C° 0 mm 6 mps 665 mmHg 9%
15:00 +39°C° 0 mm 5 mps 665 mmHg 9%
16:00 +38°C° 0 mm 4 mps 664 mmHg 9%
17:00 +35°C° 0 mm 4 mps 664 mmHg 13%
18:00 +32°C° 0 mm 4 mps 663 mmHg 16%
19:00 +28°C° 0 mm 4 mps 662 mmHg 20%
20:00 +28°C° 0 mm 5 mps 662 mmHg 20%
21:00 +28°C° 0 mm 5 mps 663 mmHg 20%
22:00 +28°C° 0 mm 6 mps 663 mmHg 21%
23:00 +27°C° 0 mm 5 mps 663 mmHg 23%

Tomorrow, 12 August, Wednesday

Time Temperature Precipitation Wind Pressure Humidity
00:00 +26°C° 0 mm 5 mps 663 mmHg 25%
01:00 +25°C° 0 mm 5 mps 663 mmHg 27%
02:00 +23°C° 0 mm 4 mps 663 mmHg 28%
03:00 +22°C° 0 mm 4 mps 663 mmHg 30%
04:00 +21°C° 0 mm 4 mps 662 mmHg 32%
05:00 +23°C° 0 mm 4 mps 663 mmHg 28%
06:00 +26°C° 0 mm 4 mps 664 mmHg 24%
07:00 +27°C° 0 mm 4 mps 665 mmHg 20%
08:00 +29°C° 0 mm 4 mps 665 mmHg 19%
09:00 +32°C° 0 mm 4 mps 665 mmHg 18%
10:00 +33°C° 0 mm 4 mps 665 mmHg 17%
11:00 +35°C° 0 mm 5 mps 665 mmHg 15%
12:00 +36°C° 0 mm 6 mps 665 mmHg 13%
13:00 +38°C° 0 mm 7 mps 665 mmHg 11%
14:00 +38°C° 0 mm 7 mps 665 mmHg 11%
15:00 +38°C° 0 mm 8 mps 664 mmHg 10%
16:00 +38°C° 0 mm 8 mps 664 mmHg 10%
17:00 +34°C° 0 mm 7 mps 663 mmHg 11%
18:00 +30°C° 0 mm 5 mps 663 mmHg 12%
19:00 +27°C° 0 mm 4 mps 662 mmHg 13%
20:00 +26°C° 0 mm 4 mps 662 mmHg 19%
21:00 +24°C° 0 mm 3 mps 662 mmHg 24%
22:00 +22°C° 0 mm 3 mps 662 mmHg 30%
23:00 +21°C° 0 mm 3 mps 662 mmHg 31%

Day after tomorrow, 13 August, Thursday

Time Temperature Precipitation Wind Pressure Humidity
00:00 +20°C° 0 mm 3 mps 663 mmHg 32%
01:00 +19°C° 0 mm 3 mps 663 mmHg 33%
02:00 +19°C° 0 mm 3 mps 663 mmHg 33%
03:00 +18°C° 0 mm 3 mps 663 mmHg 34%
04:00 +18°C° 0 mm 3 mps 663 mmHg 35%
05:00 +20°C° 0 mm 2 mps 664 mmHg 31%
06:00 +23°C° 0 mm 2 mps 665 mmHg 27%
07:00 +25°C° 0 mm 2 mps 666 mmHg 24%
08:00 +27°C° 0 mm 3 mps 666 mmHg 20%
09:00 +30°C° 0 mm 4 mps 666 mmHg 17%
10:00 +33°C° 0 mm 5 mps 667 mmHg 14%
11:00 +34°C° 0 mm 6 mps 667 mmHg 12%
12:00 +36°C° 0 mm 6 mps 667 mmHg 9%
13:00 +38°C° 0 mm 7 mps 667 mmHg 7%
14:00 +38°C° 0 mm 8 mps 666 mmHg 7%
15:00 +37°C° 0 mm 8 mps 666 mmHg 8%
16:00 +37°C° 0 mm 9 mps 665 mmHg 8%
17:00 +32°C° 0 mm 7 mps 665 mmHg 13%
18:00 +27°C° 0 mm 4 mps 664 mmHg 17%
19:00 +24°C° 0 mm 2 mps 664 mmHg 22%
20:00 +21°C° 0 mm 2 mps 664 mmHg 25%
21:00 +20°C° 0 mm 2 mps 664 mmHg 28%
22:00 +19°C° 0 mm 2 mps 664 mmHg 31%
23:00 +19°C° 0 mm 2 mps 664 mmHg 30%

14 August, Friday

Time Temperature Precipitation Wind Pressure Humidity
00:00 +19°C° 0 mm 3 mps 665 mmHg 30%
01:00 +19°C° 0 mm 4 mps 665 mmHg 29%
02:00 +18°C° 0 mm 3 mps 665 mmHg 28%
03:00 +17°C° 0 mm 3 mps 665 mmHg 28%
04:00 +16°C° 0 mm 3 mps 664 mmHg 27%
05:00 +19°C° 0 mm 3 mps 665 mmHg 23%
06:00 +21°C° 0 mm 3 mps 667 mmHg 19%
07:00 +24°C° 0 mm 3 mps 668 mmHg 14%
08:00 +27°C° 0 mm 4 mps 668 mmHg 13%
09:00 +29°C° 0 mm 4 mps 668 mmHg 12%
10:00 +32°C° 0 mm 5 mps 668 mmHg 10%
11:00 +33°C° 0 mm 5 mps 668 mmHg 10%
12:00 +35°C° 0 mm 6 mps 668 mmHg 9%
13:00 +36°C° 0 mm 6 mps 668 mmHg 9%
14:00 +36°C° 0 mm 7 mps 667 mmHg 9%
15:00 +36°C° 0 mm 7 mps 667 mmHg 9%
16:00 +36°C° 0 mm 7 mps 666 mmHg 9%
17:00 +32°C° 0 mm 5 mps 666 mmHg 12%
18:00 +28°C° 0 mm 4 mps 665 mmHg 15%
19:00 +24°C° 0 mm 3 mps 664 mmHg 18%
20:00 +22°C° 0 mm 3 mps 664 mmHg 19%
21:00 +21°C° 0 mm 2 mps 664 mmHg 20%
22:00 +20°C° 0 mm 2 mps 665 mmHg 22%
23:00 +20°C° 0 mm 2 mps 664 mmHg 22%

15 August, Saturday

Time Temperature Precipitation Wind Pressure Humidity
00:00 +20°C° 0 mm 2 mps 664 mmHg 23%
01:00 +20°C° 0 mm 2 mps 664 mmHg 24%
02:00 +19°C° 0 mm 2 mps 664 mmHg 25%
03:00 +19°C° 0 mm 2 mps 664 mmHg 26%
04:00 +18°C° 0 mm 2 mps 664 mmHg 28%
05:00 +21°C° 0 mm 2 mps 666 mmHg 23%
06:00 +25°C° 0 mm 2 mps 667 mmHg 19%
07:00 +28°C° 0 mm 2 mps 668 mmHg 15%
08:00 +30°C° 0 mm 2 mps 668 mmHg 14%
09:00 +33°C° 0 mm 3 mps 668 mmHg 12%
10:00 +35°C° 0 mm 4 mps 669 mmHg 11%
11:00 +36°C° 0 mm 4 mps 669 mmHg 10%
12:00 +37°C° 0 mm 5 mps 669 mmHg 10%
13:00 +40°C° 0 mm 5 mps 668 mmHg 9%
14:00 +40°C° 0 mm 5 mps 668 mmHg 9%
15:00 +40°C° 0 mm 5 mps 668 mmHg 9%
16:00 +40°C° 0 mm 5 mps 667 mmHg 9%
17:00 +35°C° 0 mm 4 mps 667 mmHg 13%
18:00 +31°C° 0 mm 3 mps 666 mmHg 16%
19:00 +27°C° 0 mm 2 mps 665 mmHg 19%
20:00 +26°C° 0 mm 2 mps 665 mmHg 23%
21:00 +24°C° 0 mm 1 mps 665 mmHg 28%
22:00 +23°C° 0 mm 1 mps 665 mmHg 33%
23:00 +22°C° 0 mm 1 mps 665 mmHg 33%

16 August, Sunday

Time Temperature Precipitation Wind Pressure Humidity
00:00 +22°C° 0 mm 1 mps 665 mmHg 33%
01:00 +21°C° 0 mm 1 mps 666 mmHg 34%
02:00 +21°C° 0 mm 1 mps 666 mmHg 33%
03:00 +21°C° 0 mm 1 mps 666 mmHg 32%
04:00 +21°C° 0 mm 1 mps 666 mmHg 31%
05:00 +24°C° 0 mm 1 mps 667 mmHg 26%
06:00 +27°C° 0 mm 2 mps 668 mmHg 21%
07:00 +30°C° 0 mm 2 mps 669 mmHg 16%
08:00 +34°C° 0 mm 2 mps 670 mmHg 14%
09:00 +36°C° 0 mm 2 mps 670 mmHg 12%
10:00 +39°C° 0 mm 2 mps 671 mmHg 10%
11:00 +40°C° 0 mm 2 mps 670 mmHg 9%
12:00 +42°C° 0 mm 3 mps 670 mmHg 9%
13:00 +43°C° 0 mm 3 mps 670 mmHg 9%
14:00 +43°C° 0 mm 3 mps 670 mmHg 9%
15:00 +43°C° 0 mm 4 mps 669 mmHg 9%
16:00 +42°C° 0 mm 4 mps 669 mmHg 9%
17:00 +38°C° 0 mm 3 mps 668 mmHg 12%
18:00 +35°C° 0 mm 3 mps 667 mmHg 15%
19:00 +30°C° 0 mm 3 mps 667 mmHg 18%
20:00 +29°C° 0 mm 2 mps 667 mmHg 22%
21:00 +27°C° 0 mm 2 mps 667 mmHg 25%
22:00 +25°C° 0 mm 1 mps 667 mmHg 29%
23:00 +25°C° 0 mm 1 mps 667 mmHg 28%
Show more